RH
45 48 50 52 56 59 63 65 67 67 65 62 60 62 63 64 68 71 72 71 70 69 69 68 68 68 66 66 66 66 65 64 63 62 60 58 56 54 53 51 50 49 47 46 47 47 46 46 46 46 46 45 44 43 40 38 37 35 36 35 33 34 34 35 40 41 37 35 35 32 27 24 24 26 26 27 28 30 31 32 34 35 35 37 36
46 47 48 50 53 57 61 64 67 70 70 68 65 64 65 65 67 69 68 68 70 71 71 69 68 67 66 65 64 64 64 64 64 63 62 60 58 58 56 53 51 51 50 49 48 48 49 48 48 48 48 47 46 45 43 41 40 38 37 37 36 36 36 35 37 40 39 37 36 36 31 25 26 26 26 28 28 29 32 32 34 36 36 38 38
47 48 49 49 51 54 59 62 65 69 71 73 74 73 72 69 68 70 69 68 69 71 72 73 72 69 67 65 64 64 64 63 64 64 64 64 62 61 60 57 55 54 53 52 51 50 50 51 51 51 50 50 50 48 47 45 44 42 41 40 39 38 38 37 38 40 42 40 37 37 33 26 26 28 26 28 29 29 32 33 34 36 37 39 39
49 51 51 50 51 52 56 61 63 66 68 72 76 80 81 79 76 74 73 72 72 72 72 73 75 74 71 68 66 64 64 63 63 64 64 65 65 63 62 60 58 57 56 55 55 53 53 53 54 54 54 54 54 53 52 51 50 49 48 46 45 43 42 40 40 41 43 45 42 40 38 32 28 29 29 29 31 32 33 34 36 38 39 41 40
52 53 51 51 53 54 56 61 63 65 67 70 73 77 82 85 85 83 81 80 79 77 77 76 76 76 74 74 72 68 66 64 64 65 65 65 64 63 63 62 61 61 59 58 58 57 56 56 57 57 57 58 59 58 57 56 56 56 54 53 51 49 48 46 45 45 46 50 50 48 46 43 38 33 31 31 32 33 34 36 40 41 41 40 38
54 55 53 52 54 56 58 61 65 66 67 69 71 73 77 82 86 87 87 87 87 85 85 83 82 81 78 78 80 79 76 72 68 66 66 66 66 66 65 65 64 64 63 62 62 61 61 60 60 61 61 62 63 63 61 61 61 61 60 61 58 55 56 55 54 54 55 58 60 58 54 51 46 38 32 32 33 33 37 43 46 45 42 41 40
54 57 57 55 55 58 61 63 65 68 69 70 72 72 74 77 82 85 85 85 87 88 89 89 87 86 84 82 83 84 86 86 83 79 75 72 71 70 70 70 70 70 69 68 68 67 67 67 67 67 65 66 67 67 67 67 66 66 66 65 65 66 67 68 67 67 68 69 68 65 61 57 50 41 33 33 34 35 41 47 49 48 45 44 44
54 56 58 59 59 61 64 64 66 69 70 71 73 73 75 76 78 82 84 84 83 83 86 89 88 86 86 86 86 85 85 87 89 90 90 89 87 84 81 79 78 78 77 77 76 75 75 74 75 75 73 72 72 72 73 72 73 75 75 74 75 78 79 80 79 78 77 77 73 68 64 59 53 44 36 33 35 38 41 45 47 48 48 47 45
54 55 57 60 61 62 64 64 66 68 70 72 73 74 75 76 77 78 80 82 83 81 80 83 84 85 86 86 86 87 87 87 87 88 89 92 94 95 95 93 92 91 89 88 87 86 86 85 84 83 82 81 80 80 80 80 81 82 82 83 84 86 87 86 84 84 83 80 77 71 66 62 56 48 41 35 35 38 40 43 46 46 46 47 45
57 57 58 59 60 62 64 63 64 66 69 72 74 75 76 77 78 78 77 77 81 83 82 82 81 82 85 86 86 87 88 89 91 91 90 90 88 89 91 93 96 98 98 97 96 93 94 95 93 90 88 87 87 87 86 85 85 86 85 86 87 88 90 89 87 86 83 79 77 72 67 64 59 52 45 38 35 36 38 40 43 42 42 46 46
61 61 61 60 61 63 64 64 65 66 69 72 74 76 77 77 79 79 77 76 77 78 82 85 82 77 80 84 86 87 89 92 95 96 98 98 95 92 89 87 87 90 92 95 96 95 95 97 97 93 89 89 91 92 92 90 88 87 87 87 88 87 87 88 87 85 81 78 75 71 69 66 61 57 51 42 37 38 38 39 41 41 43 49 52
60 62 63 64 63 63 63 65 67 69 72 75 75 75 77 80 81 80 78 78 77 76 78 82 81 76 76 80 85 88 91 95 99 99 99 101 100 99 99 94 91 89 88 90 92 92 92 93 95 92 86 85 90 92 93 96 96 94 92 91 91 88 85 84 84 82 80 79 75 71 71 69 66 63 57 49 43 41 41 42 43 44 47 52 56
56 60 64 66 66 65 64 65 69 73 74 75 76 76 78 81 82 81 81 80 79 78 77 79 79 75 72 75 85 92 93 95 101 101 99 101 99 98 100 100 99 98 96 96 95 92 91 89 93 95 88 82 86 90 91 93 95 98 98 97 97 93 87 83 82 80 78 79 78 75 73 72 72 71 65 59 54 49 48 48 49 51 53 55 57
54 56 61 65 67 67 66 68 70 73 74 75 77 79 79 82 83 84 84 81 80 80 76 76 77 73 68 71 83 94 96 97 101 100 99 100 96 91 95 99 100 101 100 99 97 96 96 94 95 99 95 86 87 93 93 91 91 95 98 100 100 99 95 91 88 86 83 82 81 79 77 76 78 78 74 70 64 59 58 59 59 59 59 58 60
55 57 62 66 67 68 69 70 71 74 74 75 79 82 84 86 87 85 84 81 79 80 75 74 75 71 66 68 78 90 98 100 101 100 100 100 93 89 92 97 100 101 100 100 100 99 100 100 98 100 98 92 91 95 94 90 91 94 97 99 100 100 100 98 95 94 94 92 90 87 84 82 82 82 81 79 76 73 71 70 70 69 69 70 73
58 60 64 64 65 69 73 75 76 78 79 79 82 86 88 90 90 88 85 82 81 80 77 75 76 73 69 67 72 81 91 99 101 99 99 98 91 89 94 97 99 101 100 100 101 100 100 100 99 101 99 95 94 97 96 93 93 96 98 100 100 100 100 100 97 97 97 97 97 95 92 90 89 89 88 86 85 83 83 84 84 84 85 86 86
60 63 65 66 69 73 77 81 85 87 89 90 91 91 91 92 93 90 87 84 81 80 78 75 75 74 71 68 69 73 79 91 101 101 100 97 88 84 87 91 95 98 98 98 100 100 100 100 100 100 99 96 96 98 100 99 98 99 100 100 100 100 100 100 100 100 99 99 100 99 98 97 97 98 97 94 91 87 89 94 95 96 97 92 88
65 66 69 71 72 73 78 88 95 96 97 98 98 98 97 95 93 91 89 85 80 77 75 74 72 72 71 68 69 71 72 81 94 99 102 100 90 82 79 80 85 89 90 92 96 95 93 92 94 97 97 97 96 97 100 100 99 99 100 100 100 100 100 100 100 100 99 99 100 100 100 100 100 100 100 100 98 93 92 94 94 97 99 92 85
69 69 70 72 73 75 84 95 100 100 100 101 101 100 98 95 93 91 88 82 77 71 69 70 71 71 70 68 67 68 66 68 77 87 97 101 96 88 80 73 73 77 77 79 82 85 84 81 81 86 90 92 94 96 99 100 100 100 100 100 100 100 100 100 100 98 96 95 96 97 98 100 101 101 100 101 101 99 95 91 88 92 97 91 84
69 70 74 78 80 83 91 99 101 100 100 101 98 94 95 97 95 95 93 83 74 71 69 73 77 75 74 73 70 66 65 63 62 68 82 95 99 96 89 79 73 72 72 69 67 72 77 76 75 79 80 83 92 98 99 100 100 100 99 99 99 98 98 99 100 98 93 88 86 87 89 91 93 95 97 97 98 100 101 97 92 90 92 90 83
71 75 80 85 87 90 97 100 100 100 101 100 93 85 92 102 100 98 98 87 77 79 81 81 83 81 79 80 78 71 67 68 68 65 71 88 101 99 94 87 77 69 66 63 60 63 65 68 76 80 72 69 79 90 94 98 99 99 100 99 97 95 95 97 98 95 89 84 82 82 83 83 84 87 91 92 91 92 96 99 98 96 94 92 87
78 82 86 93 95 95 100 101 100 102 100 95 87 77 84 99 102 100 101 94 87 90 88 79 77 79 77 78 80 77 69 67 68 61 60 81 101 99 93 91 84 74 67 62 61 63 62 65 79 82 70 67 77 84 87 91 92 92 94 96 97 97 98 99 99 98 96 93 88 85 85 84 83 84 88 90 90 88 87 92 99 101 99 96 93
88 90 92 99 100 99 101 100 101 103 96 88 84 77 77 90 100 100 100 99 95 93 87 78 73 73 70 67 69 71 64 57 53 43 42 69 99 100 92 94 95 91 86 80 75 75 73 76 84 83 78 83 92 93 92 93 92 93 95 97 98 98 97 95 96 99 101 99 94 88 85 82 81 81 81 83 86 88 88 90 95 100 102 100 98
96 95 96 100 100 100 101 100 101 102 93 84 85 84 81 89 95 93 91 93 89 80 75 73 70 66 62 57 55 61 66 65 61 49 41 61 95 104 96 95 100 98 91 83 78 79 79 80 82 85 88 93 98 99 99 99 99 99 100 98 95 93 90 86 85 90 94 95 94 92 88 85 85 85 84 84 87 90 91 89 86 88 93 95 95
100 98 99 100 100 100 101 101 102 100 91 84 85 86 86 89 88 81 77 80 79 70 62 61 61 59 57 51 48 57 71 76 76 68 54 56 80 99 99 98 100 93 80 73 74 78 83 86 88 92 97 98 99 98 97 98 100 99 97 95 92 89 86 82 79 82 83 81 81 83 83 84 85 85 88 92 90 87 88 87 83 81 83 84 83
100 100 100 100 100 100 100 101 101 98 95 94 92 88 88 87 83 76 72 70 69 67 62 58 57 56 54 51 52 61 73 75 75 73 65 60 70 82 83 83 85 81 78 83 88 90 93 97 95 94 95 97 97 93 88 87 88 86 83 84 82 79 78 78 78 79 78 74 73 74 76 78 80 84 92 96 89 82 82 83 83 83 84 86 87
100 101 100 100 101 101 100 100 99 95 94 96 95 91 88 87 83 78 73 68 65 64 61 59 59 57 53 53 58 65 70 70 68 69 69 69 73 78 80 81 82 80 81 89 92 89 91 94 91 88 88 89 87 82 76 73 73 74 74 76 75 73 73 73 73 73 73 72 71 71 72 73 75 80 85 85 80 76 76 78 84 86 86 88 90
101 101 100 100 101 100 100 100 99 94 91 92 93 90 86 85 86 81 75 70 68 67 65 61 59 58 58 60 65 69 68 65 63 65 69 74 78 84 88 87 84 80 79 83 86 85 85 86 84 81 79 78 76 73 69 68 69 72 73 74 74 73 71 71 72 72 72 73 72 72 72 72 73 75 75 73 72 70 70 76 85 88 85 87 88
100 100 100 101 101 100 100 99 98 96 94 93 94 93 89 85 83 82 82 78 71 71 76 73 64 64 69 74 77 75 69 66 69 75 83 88 90 94 94 90 87 87 86 88 91 92 89 86 84 81 79 78 77 73 70 69 69 70 73 78 79 76 75 76 76 74 74 76 76 76 76 76 77 78 78 77 77 76 77 83 86 86 85 85 84
100 99 97 97 97 98 97 94 93 95 95 92 91 92 90 84 75 73 83 90 85 84 91 89 82 82 89 91 90 85 79 81 89 96 97 97 97 99 100 97 95 93 91 92 94 94 91 87 85 83 81 80 79 76 74 74 73 73 77 83 83 81 80 80 79 78 79 81 81 80 81 81 81 81 82 82 81 82 86 89 88 88 89 87 84
99 95 90 89 93 97 96 93 93 95 93 91 90 87 85 84 82 83 91 98 95 94 101 101 96 97 99 99 97 97 96 98 101 101 99 98 100 102 100 96 94 93 93 93 91 87 85 82 80 80 79 78 77 75 75 75 74 73 74 77 78 80 82 81 80 82 83 83 83 84 83 82 81 81 80 81 81 81 82 84 84 84 85 84 83
100 96 93 92 95 99 99 97 96 96 94 91 90 87 82 79 81 89 99 101 91 87 96 103 101 100 101 99 97 99 100 100 99 101 101 99 98 95 91 89 93 99 99 94 85 79 77 76 73 74 75 75 75 74 74 75 74 72 72 72 73 76 80 81 82 81 79 78 79 80 79 79 78 78 78 80 81 81 79 79 79 79 79 80 80
100 100 99 98 97 98 98 95 94 94 92 89 86 85 84 79 75 81 93 98 94 92 96 98 96 98 100 100 100 101 100 99 101 102 95 87 86 91 93 94 99 102 99 91 82 75 74 73 72 72 72 73 74 74 75 76 75 74 73 73 73 77 82 84 84 81 79 80 80 78 76 78 78 79 80 80 80 80 79 78 78 77 78 78 77
100 100 100 100 99 98 96 95 94 92 92 91 88 84 84 85 84 85 86 85 87 91 92 87 82 84 88 89 92 94 97 100 101 94 83 81 91 100 101 100 100 97 92 88 82 76 73 72 72 72 73 74 75 75 76 77 78 77 77 77 77 81 84 84 82 80 79 80 80 76 75 77 79 79 78 77 77 77 77 77 77 76 76 77 76
100 101 100 100 101 101 97 95 95 95 94 93 89 85 83 85 88 90 88 83 82 84 85 83 80 80 81 82 82 81 83 85 84 77 76 88 101 103 98 96 92 83 77 77 77 74 72 70 69 69 71 72 74 75 76 77 78 78 78 78 79 82 84 81 79 78 77 75 75 77 78 78 78 78 76 75 76 76 74 72 73 74 75 76 76
101 102 100 98 100 100 97 95 96 97 98 96 93 90 89 89 90 90 89 89 88 85 84 84 84 83 82 81 79 78 77 75 76 82 93 101 102 97 89 82 75 69 67 69 71 71 70 70 69 69 69 69 72 74 75 77 79 78 79 80 80 81 80 77 76 78 78 76 79 83 82 77 76 76 74 73 73 74 74 73 72 73 75 77 78
97 99 98 98 100 100 99 99 100 100 100 100 99 98 96 94 94 93 91 90 90 87 84 84 85 85 83 80 77 78 78 74 76 89 100 98 89 83 78 70 66 67 67 68 69 71 71 71 72 71 70 70 72 73 75 78 81 81 83 82 79 78 80 80 79 79 77 76 79 80 77 74 75 75 73 70 69 70 71 72 72 73 75 77 78
95 98 97 97 99 100 100 100 100 100 100 101 101 100 97 94 94 94 93 91 89 87 85 84 84 83 82 80 79 80 79 75 74 79 85 84 78 75 75 74 74 74 72 69 70 72 72 72 73 74 75 75 75 75 77 81 84 86 88 86 82 85 91 90 84 79 75 73 74 74 72 73 75 73 72 72 71 70 72 75 74 73 73 73 72
95 97 98 97 97 98 100 99 99 99 100 100 99 97 97 96 94 93 91 89 86 84 83 82 82 82 80 80 82 83 81 78 76 75 77 79 79 78 78 80 80 79 76 75 75 76 75 75 78 81 82 81 80 80 82 84 86 87 87 84 84 91 93 85 79 76 73 69 70 70 70 71 72 71 72 74 73 73 75 77 76 75 75 73 71
94 95 98 99 99 98 99 100 100 100 98 97 97 96 96 95 94 92 91 88 84 81 79 79 80 81 81 81 83 85 83 78 75 76 78 79 80 80 81 82 82 81 80 80 80 81 80 79 82 86 87 86 86 85 84 85 86 85 84 81 79 81 79 72 70 72 70 67 68 70 70 72 74 73 71 70 71 74 75 75 75 75 76 76 76
97 97 99 100 99 99 99 98 98 99 98 97 97 96 94 94 94 93 91 90 86 82 79 78 79 81 82 84 84 86 87 84 80 80 81 80 80 81 82 83 83 83 83 82 82 82 82 82 86 89 88 88 89 88 87 87 86 83 80 76 72 71 71 71 71 73 72 70 69 70 71 74 75 72 69 70 74 77 75 74 74 74 73 74 75
100 100 100 100 100 99 99 97 95 95 97 99 99 97 95 96 96 94 92 91 90 86 81 80 80 80 86 92 92 91 94 94 89 85 83 81 81 82 83 83 85 87 87 84 82 82 84 87 89 90 88 88 89 89 89 87 84 80 77 75 72 70 71 75 77 77 75 74 75 75 75 77 78 76 75 77 79 77 75 74 75 74 74 75 76
101 100 100 101 100 99 98 97 96 96 96 96 97 98 98 99 99 98 95 94 93 90 86 83 80 79 85 94 97 97 99 101 97 91 87 83 82 83 84 85 88 92 91 88 85 86 89 92 91 89 88 89 89 89 88 85 82 79 76 75 73 71 71 75 81 81 77 77 80 80 79 79 80 81 80 80 79 77 77 78 79 79 80 81 82
101 100 100 100 99 99 98 98 98 98 96 96 97 100 101 101 100 99 97 95 94 93 89 85 83 81 84 91 95 98 100 100 96 91 88 85 85 85 84 85 90 94 94 93 92 91 92 95 93 90 89 91 90 88 86 83 80 78 75 75 75 76 74 75 79 80 78 79 82 83 82 82 82 80 79 81 82 82 82 84 85 85 84 83 82
100 99 100 99 98 98 98 98 98 98 97 98 99 99 100 100 99 97 96 95 94 93 91 87 85 85 87 90 94 97 99 98 94 90 88 87 87 87 85 85 91 97 98 96 92 87 87 93 97 93 89 87 85 83 82 82 79 77 76 75 74 76 76 76 77 77 75 74 76 79 80 82 84 83 82 85 88 87 85 85 86 88 87 85 83
100 99 100 100 99 99 98 98 99 99 98 97 96 95 95 96 95 94 94 95 95 94 92 89 87 88 89 91 92 94 96 96 95 92 89 88 89 88 85 85 90 95 98 97 90 80 80 90 99 96 87 81 80 81 82 81 78 76 75 73 72 74 76 75 72 67 59 58 68 79 82 83 87 88 85 85 88 91 90 87 85 85 86 85 84
100 100 100 99 99 100 99 99 100 100 100 98 97 95 94 94 94 94 94 95 97 98 97 93 90 90 91 91 92 93 95 97 96 94 91 91 91 88 86 87 90 94 96 95 88 79 79 89 98 96 86 80 80 80 80 78 77 76 74 71 69 70 69 63 57 52 48 51 69 86 91 89 91 92 87 83 83 85 87 87 86 85 87 88 88
100 100 99 99 99 98 98 99 99 99 98 98 97 97 97 97 98 97 96 96 97 99 100 98 95 92 92 92 93 95 96 98 97 95 93 93 93 90 87 88 90 92 94 92 84 79 82 90 95 93 86 81 80 80 80 79 78 76 74 69 63 60 56 52 51 53 54 57 69 82 87 85 85 84 81 76 71 69 74 80 81 82 85 88 88
101 100 98 99 99 98 97 98 97 96 95 95 95 97 98 98 98 97 96 96 97 98 99 98 96 94 93 94 95 96 98 99 99 97 94 94 95 93 89 86 82 83 90 92 86 81 85 92 93 90 86 83 82 81 80 79 77 75 71 65 57 52 52 54 57 61 64 67 70 73 72 70 67 65 65 67 66 66 72 79 81 82 85 86 85
100 100 99 99 100 99 98 98 98 97 97 96 97 98 99 98 97 95 95 96 97 97 97 97 97 97 97 96 96 98 99 100 100 99 96 95 96 96 93 87 78 74 81 89 88 86 88 93 92 89 87 85 84 81 79 78 77 73 65 57 53 53 57 61 64 67 70 71 69 65 61 60 60 62 68 77 81 80 80 82 85 88 91 91 90
100 100 99 99 99 99 99 99 98 98 97 97 98 99 99 99 98 97 96 97 97 96 96 96 97 98 99 99 98 100 101 102 102 101 98 96 97 98 95 89 80 73 75 82 86 87 90 93 93 91 88 85 83 81 80 78 75 67 57 52 53 57 61 63 67 71 71 69 66 63 62 63 65 67 73 83 91 92 91 91 93 95 97 98 97
Wind_Speed
22 21 21 21 22 22 21 21 20 20 21 20 19 19 18 18 17 17 15 12 11 10 11 11 12 14 15 17 19 20 20 21 22 22 22 22 21 21 21 22 23 22 21 21 23 25 25 24 24 25 24 23 23 23 23 23 23 23 23 23 23 22 22 21 15 11 13 16 16 13 13 18 23 25 26 24 25 28 29 30 29 29 28 29 30
22 22 21 20 21 21 20 20 19 20 20 19 19 19 19 18 18 18 16 14 12 10 10 10 10 11 12 13 14 16 17 18 19 20 20 19 19 20 20 20 21 22 21 21 22 23 24 25 24 24 24 25 24 23 23 23 23 23 24 22 22 22 22 21 18 14 12 15 17 15 12 14 19 22 26 25 24 27 29 29 28 27 28 29 30
22 22 21 21 21 20 19 19 19 20 20 19 19 19 19 19 18 18 17 16 15 13 11 10 9 9 10 11 12 13 14 15 16 18 19 18 18 19 21 21 21 21 22 21 22 22 23 25 25 24 24 24 25 24 23 23 23 23 24 23 22 22 22 22 20 16 13 13 16 16 13 14 15 18 23 25 25 26 26 27 27 26 27 29 30
21 21 21 21 20 19 19 18 18 19 19 19 19 19 19 19 18 17 17 16 15 14 13 11 9 8 8 9 10 11 12 13 14 15 16 17 18 18 19 20 21 22 23 22 22 22 23 24 25 25 25 25 25 25 25 24 24 24 25 25 24 22 21 22 21 18 14 13 15 16 15 14 15 16 19 23 24 24 25 26 26 26 27 28 29
21 21 22 22 20 19 18 17 17 18 18 18 18 18 18 17 17 17 17 16 16 14 13 12 10 8 7 7 8 9 10 12 13 14 14 15 16 17 17 18 19 20 22 22 22 23 23 24 24 24 25 26 26 26 26 26 24 24 24 24 25 23 21 20 20 18 17 15 14 15 16 16 16 16 18 22 23 23 22 23 24 25 25 25 27
21 21 22 23 20 18 17 17 16 17 17 17 17 18 17 16 17 17 17 17 16 15 14 13 11 9 8 6 5 6 7 9 10 11 12 12 14 15 16 17 18 19 20 20 21 22 23 23 24 24 24 25 26 26 27 26 26 26 25 24 24 23 22 21 20 20 20 17 14 14 16 18 17 16 17 21 23 24 21 19 20 22 23 24 25
20 21 22 22 20 18 16 16 16 16 16 17 17 17 17 16 16 17 17 17 17 16 15 14 12 11 10 8 6 6 6 6 7 7 8 9 10 12 14 14 14 15 16 18 19 20 21 22 23 24 25 26 26 26 26 26 27 27 27 26 24 23 23 23 22 21 21 18 15 15 16 17 17 17 16 17 20 24 24 21 20 21 23 25 25
20 21 21 21 20 18 16 16 16 16 16 16 16 16 16 16 16 16 16 17 17 17 16 15 14 13 11 10 9 8 7 6 6 6 7 8 8 9 11 12 13 13 15 16 17 19 20 22 23 23 24 25 26 26 26 26 26 27 27 27 25 23 23 22 22 21 19 16 15 16 15 16 18 18 17 17 18 21 24 25 24 23 24 26 25
20 21 20 20 19 18 17 17 16 16 16 16 15 16 16 16 16 16 15 15 16 17 16 15 14 13 12 11 10 9 8 7 6 6 7 8 9 9 10 11 12 13 15 16 17 19 20 22 24 24 23 25 26 26 26 27 27 27 28 28 26 24 24 23 22 19 17 15 15 15 15 17 18 18 18 19 19 18 19 22 22 20 21 24 25
21 21 19 18 18 18 17 17 17 17 17 16 16 16 15 15 15 15 15 14 14 15 15 14 14 13 12 11 10 9 8 7 6 6 6 7 8 9 9 10 10 11 12 13 14 16 17 18 21 23 23 24 25 26 27 28 28 28 28 28 26 26 26 25 21 18 16 16 16 16 15 17 18 19 19 19 18 17 17 20 21 18 17 18 20
20 20 19 18 18 18 18 17 17 17 17 17 17 16 16 15 15 15 14 14 14 13 13 13 13 13 12 11 10 9 8 7 7 6 6 6 7 7 7 8 9 11 12 12 12 13 13 15 17 19 21 21 23 23 24 26 28 28 28 28 27 27 27 27 24 21 18 16 16 17 17 17 18 19 19 18 17 18 18 19 22 21 17 14 13
19 20 20 19 18 18 17 17 17 17 17 18 17 17 16 16 15 15 14 14 13 13 12 12 12 13 12 10 9 8 6 7 8 7 6 5 4 4 5 5 6 8 10 10 10 11 11 12 13 15 17 19 20 22 22 22 23 25 26 27 27 28 28 28 28 25 21 18 17 18 18 17 17 19 20 18 16 17 18 18 20 21 20 18 15
20 20 21 20 19 18 17 17 17 17 17 17 18 18 18 17 16 15 15 14 13 12 12 11 11 12 11 9 8 6 5 6 7 5 3 3 1 2 3 4 3 4 5 6 7 8 9 9 9 11 14 16 17 19 21 21 21 21 22 23 24 26 27 28 29 28 25 22 20 21 20 18 17 19 20 19 17 17 17 18 19 20 21 22 21
21 21 21 20 19 19 18 18 17 16 17 17 18 18 19 18 17 16 15 14 13 12 12 10 10 12 11 9 7 5 4 6 6 4 4 3 3 4 4 3 3 4 5 5 5 6 6 7 6 6 8 12 14 16 18 20 20 20 20 22 23 24 23 25 26 26 26 25 24 24 23 20 18 18 18 20 20 20 19 19 19 21 23 25 24
22 21 20 20 20 21 20 18 16 16 17 17 18 18 18 18 18 16 15 14 13 12 12 10 10 12 11 9 7 5 4 3 5 4 4 4 4 4 3 3 2 3 4 4 5 5 5 6 5 4 5 8 10 12 14 16 18 18 19 20 22 22 21 23 24 25 25 25 24 24 23 22 21 19 19 20 21 22 21 21 21 22 23 22 20
22 21 20 21 22 21 20 18 17 16 17 17 17 18 18 18 17 16 15 15 13 13 12 10 10 10 10 9 7 6 5 3 4 5 4 3 4 3 2 1 0 1 1 1 2 3 4 5 4 4 5 6 7 8 9 11 13 15 15 15 16 16 17 18 20 22 23 23 23 22 22 22 21 20 21 22 22 22 21 20 20 18 17 16 15
22 21 21 21 21 19 19 18 16 14 15 15 16 16 17 17 17 15 15 15 14 13 12 10 9 9 10 10 8 5 5 4 2 5 5 3 2 2 2 2 2 2 2 3 2 2 1 3 3 3 4 5 5 6 5 6 9 11 11 11 11 11 11 12 13 16 18 19 20 20 18 18 18 18 19 20 21 21 20 19 18 15 12 12 12
21 21 20 20 19 20 20 17 14 12 13 14 15 15 16 16 16 15 14 14 14 13 12 10 9 8 9 10 8 7 6 6 4 2 5 4 2 2 2 1 1 1 1 2 2 2 1 1 1 2 2 2 4 5 5 5 7 8 8 8 9 9 8 8 10 12 14 15 16 17 16 16 16 16 17 18 19 20 22 21 18 15 13 12 12
22 22 21 19 20 21 19 14 12 12 13 14 16 16 16 16 16 14 13 13 14 12 11 9 8 7 7 9 9 8 8 7 6 4 3 4 3 2 3 2 2 1 1 1 1 1 1 2 2 1 1 1 1 2 3 3 3 6 7 6 7 8 7 7 9 11 13 14 15 16 16 15 14 14 15 16 17 20 22 23 21 18 15 14 14
24 23 20 18 18 19 17 13 12 13 15 18 19 18 16 15 14 13 12 12 12 11 9 9 8 7 7 7 8 9 9 8 7 6 4 3 2 2 2 2 2 2 2 2 2 1 1 2 2 2 3 3 2 1 2 2 2 4 6 6 6 6 6 7 9 9 10 13 13 14 15 16 16 15 14 15 16 17 18 21 23 22 18 15 15
24 22 19 16 17 18 15 13 15 17 18 19 20 18 15 13 13 12 10 11 11 10 9 8 8 8 7 7 8 10 11 10 9 8 6 3 2 2 2 2 2 2 2 2 2 2 2 1 0 2 4 5 4 3 3 4 4 3 4 6 7 6 6 8 9 9 10 10 10 10 11 12 14 14 13 14 16 17 16 17 20 22 21 17 15
22 20 18 16 16 17 16 16 18 20 18 17 17 18 15 13 12 11 10 10 11 10 10 9 8 8 7 7 8 10 11 10 9 8 6 3 1 1 2 2 2 3 3 2 2 1 1 1 0 1 3 3 3 4 5 5 5 5 5 5 5 5 6 6 6 7 8 8 8 8 8 8 9 9 9 10 11 15 17 16 16 18 21 21 18
17 17 17 16 16 17 17 18 20 19 17 15 15 16 16 13 11 10 10 10 10 11 11 10 9 8 7 7 7 7 7 7 6 5 4 2 0 1 2 2 2 2 2 1 1 1 1 0 1 2 3 2 2 2 1 1 1 1 1 2 3 2 4 3 2 3 4 4 6 7 8 8 8 8 8 8 7 9 11 11 11 12 16 19 20
13 15 17 17 17 17 17 18 18 16 15 14 13 14 14 12 11 11 10 10 10 9 9 8 7 7 7 6 5 3 2 2 2 2 3 4 2 1 1 1 1 2 2 1 1 1 1 1 2 3 3 3 2 2 3 3 3 3 3 3 3 2 3 3 3 2 2 2 2 4 6 7 7 7 7 7 7 7 7 9 12 13 14 15 18
12 16 18 18 18 17 17 18 17 15 13 13 13 13 12 10 10 10 10 9 9 9 8 7 6 6 6 5 4 3 2 2 1 1 2 3 3 2 2 2 2 2 1 2 1 1 1 2 3 3 3 2 2 1 0 2 3 3 4 4 3 1 1 2 3 4 4 4 4 5 5 5 5 5 5 6 7 8 7 8 11 13 14 14 15
15 18 18 17 16 16 16 16 14 12 11 10 11 11 10 9 10 9 9 9 8 8 7 7 6 6 5 5 4 3 2 2 2 1 1 2 2 2 3 4 4 4 3 3 2 2 2 3 3 3 3 3 3 3 4 6 7 8 8 7 5 1 1 1 3 4 5 7 7 7 7 6 6 6 5 5 6 8 7 7 8 10 11 11 11
17 17 17 16 13 13 14 12 10 10 9 8 9 10 10 9 9 9 8 8 7 7 7 6 5 5 5 4 4 3 3 2 2 2 2 2 2 2 2 2 3 3 3 3 2 2 1 2 3 4 4 4 5 6 7 8 8 6 4 4 3 2 2 3 4 5 6 6 6 7 6 6 5 4 4 5 6 7 7 8 8 8 8 8 9
18 18 17 15 13 12 11 10 9 9 9 8 8 9 9 9 9 8 8 7 6 5 5 5 5 5 4 4 3 3 3 4 3 2 2 2 1 1 2 2 3 3 2 2 2 2 2 4 5 5 6 6 6 6 6 6 5 4 3 2 3 4 4 4 5 6 6 5 5 5 5 5 5 4 4 5 6 6 7 7 6 6 7 7 8
18 18 16 13 12 11 9 8 8 7 7 7 8 8 9 9 9 9 8 8 7 6 5 4 3 4 4 4 4 4 4 3 3 2 1 1 2 3 3 3 2 2 2 2 3 4 5 5 6 6 6 5 5 5 6 5 5 5 4 3 2 3 2 2 2 4 4 4 4 4 4 4 5 4 4 5 5 5 5 5 5 5 6 7 8
17 16 15 13 12 9 8 8 7 6 7 7 7 8 9 9 9 9 7 6 7 7 6 6 6 6 6 5 4 4 3 1 1 1 2 3 3 3 3 3 4 5 6 6 7 8 8 7 6 6 5 5 5 5 5 5 5 5 3 1 2 2 2 2 2 2 3 2 2 3 3 3 3 3 3 4 4 4 3 3 4 4 5 6 8
16 15 15 14 11 8 7 8 7 6 7 7 7 8 8 7 7 8 8 7 6 6 6 7 7 6 4 4 3 3 3 2 3 4 5 5 3 2 3 5 7 8 8 7 7 8 8 8 7 6 5 5 5 5 5 4 4 5 4 2 2 2 2 2 3 3 2 2 2 2 2 2 2 2 2 2 3 3 2 3 3 4 5 6 7
15 15 15 13 11 8 6 7 6 6 7 7 7 7 7 6 5 6 7 8 7 6 6 6 4 1 2 2 2 3 3 3 4 4 4 5 5 5 6 5 4 4 4 4 5 7 7 7 7 6 6 6 6 6 5 5 4 4 4 4 3 2 3 4 4 4 3 2 2 2 2 2 2 2 2 1 1 2 3 3 4 4 5 5 6
15 14 13 11 9 7 7 7 7 6 6 7 7 6 6 6 5 3 4 5 7 7 8 8 7 5 4 2 2 3 3 2 3 6 7 6 6 6 5 4 6 7 5 4 5 6 6 6 7 7 7 7 7 6 6 6 5 5 5 4 3 3 5 5 3 2 2 2 2 2 2 2 1 2 2 2 2 2 3 3 4 4 5 5 6
14 13 12 10 9 8 8 8 7 7 6 6 6 7 6 6 5 4 4 4 5 6 8 11 13 14 13 11 9 8 7 6 7 10 9 6 5 5 5 4 5 7 8 7 6 7 7 8 8 8 8 7 7 7 6 6 5 5 5 5 4 4 4 3 2 2 3 3 3 3 3 2 2 2 2 2 2 2 2 3 3 3 4 4 5
12 10 10 10 9 8 8 8 8 7 6 6 6 7 6 6 5 5 5 4 4 5 5 7 10 12 13 12 11 11 10 10 11 9 6 4 6 8 7 6 6 7 7 6 6 6 7 7 7 7 7 7 7 7 6 6 6 5 5 5 5 4 3 3 3 4 5 4 3 3 3 3 3 2 2 2 2 2 2 2 3 2 2 3 4
9 7 7 7 7 7 8 8 8 7 6 6 6 6 6 6 6 6 5 5 6 6 5 5 8 10 10 10 10 10 9 9 7 5 3 4 8 8 7 6 6 6 4 4 4 4 5 5 5 5 6 6 6 6 6 6 6 5 5 5 5 5 4 5 5 4 4 4 4 4 4 4 3 3 2 2 2 2 2 3 2 2 2 2 3
9 7 6 6 7 7 9 9 9 8 9 9 7 6 6 6 6 5 6 6 6 6 7 6 6 7 7 7 8 8 7 7 6 4 5 7 8 7 4 4 5 5 4 5 4 4 4 5 5 5 5 6 7 6 6 5 5 5 5 5 5 5 5 6 6 6 5 5 4 4 4 4 4 3 2 2 2 2 3 3 2 2 2 2 2
9 8 9 9 9 9 9 9 9 9 9 9 8 7 7 6 6 6 6 6 6 7 7 6 6 6 4 5 7 8 7 6 5 5 5 5 5 3 4 4 4 5 5 5 5 5 4 5 5 6 6 6 6 6 6 5 5 6 6 6 6 6 6 6 6 6 6 5 4 4 4 4 3 3 2 2 3 3 3 2 2 2 2 2 3
10 10 11 12 12 11 9 9 9 8 8 8 7 7 7 6 6 6 6 6 7 7 7 6 7 6 5 5 6 6 6 4 3 3 3 3 3 3 4 4 4 5 5 5 6 6 6 6 6 6 6 6 6 6 6 6 5 6 6 7 7 6 6 5 5 5 5 5 5 4 3 4 3 3 3 3 3 3 3 2 2 2 3 3 4
12 11 11 11 11 10 9 8 9 9 8 8 8 7 7 7 7 7 7 7 7 7 7 7 7 7 8 9 8 6 4 3 4 4 4 3 3 4 4 4 5 6 6 6 7 7 7 7 7 7 6 6 6 6 6 6 6 7 7 7 7 7 6 5 5 5 5 6 5 4 4 5 5 4 4 4 4 3 3 3 3 3 4 4 5
13 12 11 10 10 10 9 9 9 9 9 8 8 8 8 8 8 7 7 7 8 8 8 8 8 8 9 11 10 7 6 5 4 4 4 5 5 5 5 5 6 7 7 7 7 7 7 7 7 7 7 7 7 7 7 7 7 7 7 7 7 7 6 6 6 6 6 6 6 5 5 5 5 4 3 3 3 3 3 3 3 4 4 5 6
14 13 12 11 10 9 9 9 10 10 9 8 8 9 9 8 8 7 7 7 8 8 8 9 9 8 9 10 9 8 8 7 6 6 6 6 6 7 7 6 7 7 7 7 7 7 7 7 7 7 7 7 7 7 7 7 7 7 7 7 7 7 7 6 6 7 7 6 6 7 7 5 4 4 3 3 3 3 3 4 4 4 5 5 6
14 13 12 11 10 9 9 9 9 9 9 9 9 8 8 7 7 7 8 8 8 8 9 9 9 8 8 9 9 9 9 8 7 7 8 8 8 8 7 7 8 8 7 7 7 7 6 7 7 7 7 7 8 7 7 8 8 8 7 7 7 7 7 7 6 7 7 6 6 7 7 6 4 3 3 3 3 3 4 4 4 4 4 5 5
15 13 12 10 10 10 9 9 9 9 10 10 9 9 9 8 7 7 8 9 9 9 9 9 8 8 8 9 9 11 11 9 8 9 10 9 9 9 8 8 8 7 7 7 7 7 6 6 7 8 8 8 8 8 8 8 8 7 7 7 7 7 7 7 7 7 7 7 7 6 6 5 5 4 4 4 4 4 3 3 4 4 4 4 5
16 14 12 12 11 11 10 9 9 9 9 9 9 9 9 9 9 8 9 9 9 9 9 8 8 8 9 9 9 10 10 10 10 10 10 10 10 10 9 8 7 7 7 7 8 8 9 8 7 9 10 9 9 11 10 9 8 8 8 7 7 6 7 8 8 8 8 8 7 6 5 5 5 5 4 4 4 3 3 3 3 4 4 5 6
17 16 14 13 12 11 10 10 9 9 9 9 9 9 9 9 9 9 9 8 8 8 8 8 9 9 9 9 9 10 10 10 10 11 11 11 11 11 10 9 8 7 7 7 8 10 11 10 9 9 11 11 11 12 12 10 9 8 8 7 7 7 8 8 8 8 8 8 8 6 6 6 5 5 5 4 3 2 3 3 4 5 5 6 7
17 15 14 13 12 12 11 10 9 9 9 9 9 9 9 8 9 9 9 9 9 9 8 9 9 10 10 10 10 10 10 10 10 10 11 11 12 12 11 10 9 8 8 9 10 11 12 12 11 10 11 12 12 11 11 10 9 8 8 7 8 8 9 8 6 6 7 8 9 7 6 6 5 4 4 4 3 3 4 4 5 6 7 7 8
16 15 13 12 12 12 11 11 11 10 10 9 9 9 8 8 8 8 8 9 10 10 9 9 10 10 10 10 10 9 9 9 9 10 10 10 12 13 13 11 10 9 9 10 12 13 13 13 13 12 12 12 12 11 11 10 9 8 7 7 7 8 8 7 7 7 7 8 9 8 7 6 5 4 4 4 3 4 4 4 5 6 7 7 8
15 14 12 12 12 12 12 11 11 11 10 10 9 9 8 7 8 8 8 8 8 9 9 9 9 9 9 10 9 8 8 8 8 9 9 10 10 12 13 13 13 11 10 10 12 14 14 14 15 14 13 12 12 12 11 10 9 8 7 7 7 8 8 8 8 8 8 8 7 7 6 5 5 4 4 4 4 5 5 5 6 7 7 8 9
13 12 12 12 12 12 11 11 11 11 10 10 9 9 8 8 8 8 8 8 8 8 8 8 7 8 8 8 8 8 8 8 9 9 9 9 10 10 12 14 14 14 13 11 11 14 15 15 15 15 14 14 13 12 11 9 9 8 8 8 8 9 9 9 9 8 8 7 6 6 5 4 4 3 4 4 4 5 6 7 7 8 8 9 11
13 12 12 12 12 11 11 11 11 11 10 10 9 9 8 8 8 8 8 8 8 8 8 7 7 7 7 7 7 7 8 9 9 8 8 8 9 10 12 13 14 15 15 13 12 14 16 16 16 16 16 14 13 12 10 10 9 8 8 9 10 11 11 10 9 9 8 7 6 5 5 4 4 5 5 5 5 6 7 8 8 9 10 11 11
Wind_Direction
349 349 347 343 340 338 337 338 339 340 340 341 344 346 346 346 346 342 335 324 310 294 280 268 256 245 238 236 234 231 229 226 223 220 218 216 214 214 213 210 210 211 210 211 214 216 217 217 219 219 218 218 218 218 218 219 221 221 222 224 226 227 228 231 240 246 236 234 235 234 219 203 202 210 212 210 216 221 223 227 229 228 226 224 229
343 345 345 343 339 336 335 335 336 338 338 339 340 343 344 344 345 346 344 340 333 321 303 287 273 258 246 239 233 229 226 224 220 216 215 214 213 215 215 211 211 213 212 211 213 215 217 219 220 220 219 219 219 217 217 217 217 217 218 220 223 224 225 229 235 242 239 230 231 235 224 199 196 208 213 211 215 221 223 225 227 226 225 224 229
337 339 341 341 339 336 333 332 332 334 335 336 337 339 340 339 341 343 343 344 343 339 330 315 297 276 261 250 240 234 229 224 220 217 216 214 214 216 217 215 215 217 217 216 216 216 219 221 221 220 219 220 220 218 217 217 216 217 218 219 222 224 224 227 232 237 238 231 228 229 223 206 200 211 219 217 218 223 226 228 227 224 223 224 227
333 335 337 337 336 334 332 329 329 331 331 332 333 334 336 337 338 339 339 340 342 342 341 338 326 302 279 262 250 242 235 229 225 221 219 217 216 217 217 216 217 220 222 222 220 220 221 223 223 222 221 221 221 220 220 220 219 219 221 221 223 225 224 226 229 232 235 233 230 228 225 219 216 220 223 218 219 226 230 229 225 221 221 224 226
330 332 333 333 332 331 330 328 327 328 328 328 329 330 333 334 334 336 336 336 337 339 341 344 344 335 315 288 268 255 244 237 231 226 222 219 219 219 219 219 220 223 225 225 224 223 224 225 225 224 222 222 222 222 222 222 221 221 222 222 223 224 222 222 224 226 231 232 230 229 230 232 229 226 221 214 213 219 224 222 219 217 219 224 225
326 328 330 330 328 326 326 325 325 326 325 325 325 327 329 330 331 333 334 334 334 334 337 339 342 342 337 326 300 275 259 248 239 233 227 223 224 225 224 225 226 227 228 228 228 227 226 228 228 226 224 223 224 225 224 224 223 222 221 221 221 222 221 222 222 224 230 232 230 229 230 232 231 226 220 212 207 208 209 208 212 215 217 220 221
324 325 326 326 324 321 322 322 322 323 322 322 322 323 324 325 327 329 331 333 333 332 333 334 335 334 331 329 318 298 278 258 247 243 238 234 232 229 225 225 224 226 230 230 231 231 231 232 232 230 229 229 229 229 227 225 224 224 224 223 221 221 222 223 223 224 227 229 228 227 227 228 228 226 220 210 208 212 209 202 204 212 215 218 219
321 323 322 322 320 318 318 318 318 319 319 319 319 320 322 322 322 324 326 328 330 330 330 329 329 330 327 324 319 313 302 281 262 250 242 238 235 231 229 229 230 232 235 236 236 237 238 237 236 236 235 236 236 234 231 228 226 225 226 225 222 220 219 219 219 219 219 221 223 224 226 226 226 224 219 210 209 213 211 207 209 212 215 219 221
316 320 320 318 317 316 317 316 315 316 317 317 317 318 319 319 320 321 321 321 324 326 328 326 326 326 326 323 320 318 315 308 296 279 264 254 246 243 240 239 239 240 241 243 244 245 245 245 245 244 243 243 243 241 237 233 229 228 228 226 222 219 218 216 215 213 212 216 221 222 223 225 223 219 216 213 210 207 207 209 212 214 215 219 222
312 315 317 317 316 315 314 314 315 316 315 314 314 315 316 317 317 318 318 317 319 321 323 325 325 325 324 324 324 323 321 318 314 309 302 289 276 267 257 249 244 240 241 243 244 244 245 248 251 251 250 250 249 247 244 241 238 236 234 231 224 218 216 215 213 209 209 213 217 216 217 221 220 215 216 218 213 207 204 204 208 211 208 212 221
309 310 313 315 315 312 311 312 314 315 314 313 312 311 312 313 313 313 313 314 316 317 318 320 322 322 322 322 323 325 325 325 324 317 314 307 295 285 277 266 253 245 242 240 241 241 241 246 253 254 252 250 248 246 245 244 243 241 240 238 233 226 221 218 215 212 211 213 214 213 216 220 219 217 218 218 211 209 208 206 208 209 206 207 215
306 305 307 310 310 308 307 309 310 311 311 310 310 310 309 309 309 308 309 310 311 312 313 313 315 318 320 319 321 321 322 333 334 323 317 313 294 270 265 263 252 246 244 240 239 241 240 244 251 253 250 246 243 242 240 238 239 240 239 239 237 235 233 228 223 219 216 215 216 217 219 221 221 220 218 215 211 211 211 209 210 212 213 216 218
306 303 302 303 304 303 303 306 307 307 308 307 308 309 308 306 305 304 304 304 303 303 305 306 307 310 313 315 317 314 316 336 341 337 347 348 290 245 248 244 223 221 230 230 234 236 236 241 245 247 248 245 239 238 237 234 233 233 234 233 233 235 237 236 234 231 225 221 220 223 224 222 222 222 219 216 212 207 205 208 212 215 218 221 226
306 304 301 301 301 298 299 302 303 303 305 306 306 305 304 303 301 301 300 298 297 297 298 297 296 301 306 309 309 301 308 343 352 359 24 9 306 285 282 263 228 215 221 219 222 224 222 229 234 237 244 241 234 233 234 234 233 230 229 229 229 230 232 232 233 233 231 228 228 230 231 227 225 226 224 222 220 214 212 214 216 220 225 229 234
305 304 301 300 300 297 295 296 299 300 301 303 303 301 299 298 297 298 297 294 294 293 292 290 290 295 298 297 294 282 279 338 6 2 14 17 346 318 303 278 245 231 230 220 215 212 208 215 219 219 234 236 231 231 234 235 232 229 228 228 228 228 229 229 228 228 228 230 232 234 236 235 234 235 234 232 230 228 229 233 232 231 232 235 237
303 302 299 298 299 297 294 292 294 295 296 298 299 296 295 294 293 294 294 292 291 289 286 285 284 288 290 285 281 276 269 292 9 9 7 19 20 16 8 355 38 182 177 174 206 214 212 209 202 206 229 233 226 228 234 234 230 227 224 224 224 225 228 230 229 229 229 231 233 236 239 241 240 241 241 240 239 239 237 238 236 231 228 229 230
303 301 299 298 299 299 296 291 288 288 289 292 292 293 294 293 291 291 291 289 289 288 284 281 276 274 278 277 271 269 269 263 319 15 20 26 17 12 20 37 55 81 88 78 76 87 150 186 188 204 226 229 222 216 213 220 226 222 217 218 220 221 226 228 227 229 231 232 235 237 239 240 238 236 237 238 240 240 233 226 223 215 209 216 222
303 302 299 298 300 301 298 288 280 281 284 285 288 290 290 290 288 287 285 285 287 287 283 280 274 268 270 272 264 259 264 257 249 321 11 19 7 338 332 339 11 32 56 63 69 72 60 84 164 189 199 204 215 209 198 215 232 226 217 217 220 223 225 222 223 228 230 233 236 237 238 239 236 234 232 230 231 231 226 222 217 204 199 212 220
302 301 297 295 299 300 294 282 274 278 279 281 286 288 287 287 286 282 280 282 284 284 282 280 275 267 267 270 266 258 260 260 250 258 332 1 1 332 312 296 296 316 326 334 12 59 322 317 315 270 195 169 184 192 195 213 237 230 224 222 224 228 226 223 230 236 237 237 237 238 241 244 244 242 238 231 225 224 224 225 221 208 203 213 217
300 297 293 294 297 296 289 279 275 278 281 284 287 288 287 285 283 279 278 281 282 282 283 283 279 275 270 270 270 263 259 262 261 258 276 319 339 319 295 280 282 294 288 278 277 254 261 288 292 264 241 225 216 243 259 265 265 242 228 223 227 232 224 222 229 238 247 251 251 250 250 252 257 258 253 245 236 227 222 223 221 216 212 214 216
298 295 292 293 296 294 287 279 280 282 285 287 288 288 286 282 279 277 278 280 282 283 286 286 280 275 268 261 266 269 267 266 270 269 271 292 321 296 265 252 259 275 272 258 257 256 240 217 206 261 259 249 242 257 286 291 287 278 251 238 240 243 234 226 226 232 244 253 257 259 256 254 256 258 256 254 252 246 240 235 229 225 222 219 217
294 294 294 291 291 292 285 280 283 286 287 286 285 286 286 281 277 275 274 277 280 282 284 285 279 271 268 262 261 270 275 273 272 271 267 274 318 278 250 254 255 257 262 255 246 251 240 182 112 301 290 281 272 278 284 281 281 286 278 261 252 239 226 218 213 217 225 231 236 242 244 240 240 240 236 237 244 248 251 251 245 237 233 230 227
291 296 295 288 286 286 283 282 285 286 287 285 282 283 285 283 276 272 272 273 274 276 278 277 272 266 267 262 253 261 275 276 273 266 235 199 145 242 229 251 255 231 228 243 252 260 258 30 355 334 329 338 341 334 318 257 264 22 106 140 145 181 213 223 217 206 206 216 223 227 230 232 231 230 227 226 230 237 240 243 245 244 241 239 238
291 297 294 288 285 284 283 284 284 283 284 283 280 279 281 278 273 271 270 267 268 273 273 267 263 263 265 260 244 236 246 250 261 251 180 163 144 117 168 190 177 174 196 239 267 281 294 320 336 345 350 358 24 60 96 124 130 121 128 145 165 209 236 255 267 238 191 193 212 214 222 227 227 227 229 230 227 222 220 234 246 250 249 248 248
293 296 291 285 284 283 284 285 283 281 281 279 276 275 273 270 269 269 266 261 261 268 268 262 258 260 263 261 241 211 179 171 189 197 164 163 156 139 157 182 186 183 210 236 248 263 292 312 319 324 326 327 342 357 300 207 217 239 247 249 256 261 217 233 242 237 233 238 240 234 228 223 227 231 225 220 227 233 241 258 265 268 271 270 265
294 294 289 282 281 281 283 283 280 277 277 274 271 271 266 262 264 265 263 258 256 258 261 261 260 255 254 252 234 211 202 198 194 200 184 172 179 196 212 224 231 235 236 241 259 272 280 292 298 300 301 295 286 282 272 268 273 282 285 283 278 273 109 208 230 236 246 249 248 248 244 236 240 238 217 215 240 255 265 272 271 273 277 278 275
294 292 287 282 281 280 278 278 274 272 270 265 263 267 264 258 257 257 255 253 251 252 252 251 251 249 245 238 225 218 228 225 209 209 202 179 183 210 221 239 254 255 249 247 251 255 279 304 291 283 283 279 274 273 272 272 276 282 287 284 263 221 190 207 222 232 247 254 252 252 249 242 246 248 236 239 256 264 267 270 269 267 269 272 274
293 291 285 280 280 277 273 271 271 271 271 265 261 263 262 257 254 252 250 247 244 246 250 246 242 241 240 236 234 238 244 239 225 209 188 175 188 246 249 254 262 259 250 238 228 245 280 297 290 281 275 271 269 263 257 253 243 225 219 231 246 249 246 240 237 238 241 243 243 246 246 244 248 259 261 255 256 256 256 261 267 269 273 280 282
293 291 283 277 277 274 270 269 267 268 273 270 264 263 262 260 258 254 251 248 243 244 253 252 240 240 246 250 253 254 253 237 206 186 184 239 276 277 263 248 242 237 236 240 253 272 282 284 279 272 264 258 255 249 243 237 231 234 239 233 231 247 245 216 223 229 221 217 224 232 235 237 242 249 249 244 246 247 245 248 260 271 276 278 276
294 293 286 281 280 275 273 275 271 268 276 278 277 278 276 272 266 257 249 249 249 245 244 248 257 260 254 244 242 248 252 233 178 219 278 288 284 262 241 245 265 269 266 267 267 269 271 270 266 262 255 251 250 246 243 239 234 238 243 208 183 208 204 189 194 193 185 191 208 215 214 216 223 228 228 230 236 238 238 246 260 275 279 275 274
295 296 293 290 287 280 277 280 275 274 282 284 284 287 287 283 268 251 244 252 257 244 241 258 277 279 248 216 215 230 239 251 270 284 285 281 277 265 265 282 284 272 261 257 256 256 257 256 254 250 247 249 253 251 248 246 243 245 245 231 218 217 195 179 168 151 145 159 173 170 175 190 207 217 218 220 226 234 247 261 264 268 273 272 275
293 295 296 295 290 281 273 275 274 277 284 286 286 288 289 289 274 244 234 244 249 241 247 272 302 16 120 159 200 232 242 256 269 269 258 257 275 287 285 279 260 220 201 209 231 240 241 241 244 245 244 245 248 250 249 246 245 249 243 236 235 209 176 173 173 161 149 163 175 165 160 169 186 208 217 221 235 251 265 272 268 269 276 277 278
292 292 294 295 292 284 276 274 274 279 286 289 291 291 285 286 287 263 234 243 247 242 246 254 249 233 223 220 221 234 244 254 251 241 238 252 280 283 262 224 198 193 198 211 227 235 237 238 242 244 244 244 243 242 242 240 239 243 239 236 232 196 180 187 201 184 158 167 178 178 179 185 194 211 220 227 241 250 259 266 267 272 277 277 278
297 293 293 295 294 289 283 282 281 282 285 287 289 288 281 280 288 286 271 262 251 239 244 250 250 250 253 255 252 246 238 237 245 245 247 260 264 227 198 196 218 233 244 245 239 240 244 243 242 240 239 242 241 238 237 234 230 230 229 224 217 203 200 215 228 172 157 153 150 165 185 190 184 196 220 229 229 229 240 255 263 267 269 272 279
304 298 297 299 297 289 285 287 285 283 283 282 283 286 282 276 277 278 276 275 267 258 257 258 257 258 259 258 256 250 241 241 247 246 245 256 244 226 222 238 248 250 252 244 236 239 242 241 242 241 237 237 238 236 235 231 225 221 219 213 205 199 200 200 175 160 162 162 150 152 165 170 168 181 204 217 219 228 244 253 257 263 272 281 289
312 305 304 305 302 297 294 293 288 283 281 280 280 280 277 271 269 271 270 269 269 270 267 259 262 268 266 258 255 254 252 250 247 234 222 249 251 245 243 245 242 239 234 220 216 226 233 233 237 237 233 233 233 230 226 222 213 207 203 197 189 183 182 183 177 166 162 164 158 147 145 154 165 169 176 200 222 231 233 239 252 265 276 287 293
310 305 308 311 309 304 298 292 285 279 279 279 276 269 262 257 257 261 264 260 261 267 270 266 270 280 278 266 260 261 263 262 254 234 232 248 255 254 240 224 222 224 220 214 211 216 222 227 228 229 228 226 224 221 216 206 197 190 183 177 176 175 170 168 168 162 152 151 154 151 150 158 164 161 167 199 214 210 207 213 223 242 251 262 284
299 294 297 303 309 308 298 290 285 281 277 274 269 258 251 250 249 255 262 261 259 262 264 262 262 266 266 266 271 275 280 281 270 246 234 240 245 230 204 201 207 211 215 219 216 213 219 226 222 219 219 216 212 209 203 191 180 175 172 167 164 162 161 166 172 172 165 157 153 149 150 154 154 150 158 183 198 202 204 199 197 227 249 260 265
294 291 293 298 305 307 299 288 284 279 271 263 256 249 245 246 248 250 255 259 259 260 258 252 251 249 236 233 253 271 281 280 256 220 209 214 211 200 198 201 206 210 216 221 217 215 222 224 214 208 208 206 201 199 194 184 175 168 164 162 161 159 160 166 169 163 161 163 162 159 159 160 159 158 162 173 184 186 183 183 202 232 244 255 263
296 293 292 293 296 298 294 285 278 272 265 258 252 247 241 240 241 244 247 250 253 257 255 249 246 242 234 232 237 242 242 239 229 212 208 217 219 213 211 212 214 213 213 214 212 211 213 213 207 202 200 195 191 188 182 173 167 164 164 167 169 167 168 172 170 162 162 166 169 170 167 163 160 163 170 175 176 175 179 195 217 229 234 245 256
297 294 291 289 288 289 288 281 272 266 262 255 249 245 240 236 237 237 238 243 248 252 253 250 247 241 237 240 244 239 228 230 234 227 225 227 225 219 219 220 219 216 211 209 210 210 208 207 203 196 192 188 183 181 176 169 166 167 171 173 173 172 172 173 174 173 171 168 170 174 173 168 168 171 173 171 171 177 194 210 221 233 242 249 254
298 294 291 289 286 284 282 279 275 269 262 252 247 245 241 238 237 234 234 240 245 247 249 250 247 239 234 238 243 238 230 230 232 230 232 234 227 223 224 222 217 213 208 205 206 205 201 199 195 189 187 184 179 174 172 170 168 167 171 174 176 178 177 173 176 181 178 171 172 177 174 169 170 175 178 180 187 198 215 223 232 245 252 253 257
298 291 287 284 282 278 276 277 277 272 263 254 250 248 243 240 239 238 238 240 241 241 244 247 245 238 234 235 234 227 222 222 224 226 231 230 223 219 221 220 215 210 202 200 202 198 194 192 192 189 186 182 179 177 175 175 174 172 171 173 176 180 181 178 180 186 182 173 177 189 190 184 179 181 186 192 199 211 224 229 236 246 251 255 261
300 291 284 281 280 276 274 271 268 266 265 263 259 257 254 249 244 241 240 240 238 238 240 242 241 234 230 232 232 227 223 221 220 223 227 226 222 220 220 217 212 204 195 194 197 195 190 188 186 185 181 176 177 176 170 169 172 172 171 174 178 184 190 190 186 186 184 178 181 194 200 192 188 192 198 201 201 206 216 225 231 239 248 260 269
304 295 288 285 283 279 276 272 264 260 262 262 259 257 253 247 242 240 239 238 240 239 239 241 240 231 225 225 228 227 225 221 218 221 224 223 222 223 219 211 207 203 197 198 203 203 198 190 185 188 191 190 188 186 181 178 178 177 176 180 180 181 191 195 193 197 200 194 186 187 189 185 183 186 187 188 191 198 211 226 235 244 255 266 272
302 294 287 284 283 279 277 274 268 261 258 254 252 252 248 242 238 238 236 237 239 239 237 237 236 230 224 222 221 220 220 217 215 218 220 219 221 223 217 208 207 206 198 199 207 209 203 193 189 198 205 204 200 199 200 202 203 202 203 204 197 192 201 207 207 211 211 195 178 174 177 175 173 178 186 188 189 204 226 242 254 261 267 270 270
298 292 286 282 282 282 278 274 270 266 260 254 250 249 247 244 240 238 237 238 241 241 238 235 231 227 225 223 218 216 214 213 214 217 216 216 220 222 214 204 203 202 202 207 212 211 205 198 195 203 210 208 203 203 207 212 216 220 226 229 221 215 219 220 211 204 195 178 165 161 164 163 162 177 197 202 205 225 245 259 267 268 270 272 272
295 292 288 284 285 285 282 278 276 271 263 257 251 247 244 243 242 240 238 238 239 240 238 234 229 226 225 222 218 216 214 212 211 213 211 212 219 221 216 209 203 199 204 213 215 211 205 201 200 204 209 209 206 206 209 215 220 226 232 233 224 215 210 202 190 181 175 169 165 165 168 167 166 175 200 219 234 249 256 260 266 269 272 273 274
295 293 290 288 288 286 284 283 281 275 270 266 261 253 247 243 242 241 238 234 233 232 231 228 225 225 224 220 216 214 214 213 211 209 206 205 210 216 219 220 215 207 203 210 213 210 206 203 205 208 209 207 206 209 213 219 226 232 231 224 212 199 189 182 179 174 167 164 168 173 178 183 190 202 225 246 259 262 260 261 265 270 272 274 274
298 296 293 292 290 287 285 284 281 277 275 273 268 263 258 251 246 243 240 236 234 233 230 228 226 225 224 222 217 213 216 220 219 214 209 205 203 207 217 224 222 215 209 207 209 209 206 203 204 207 207 206 207 212 216 222 227 230 224 211 198 189 184 181 178 175 171 172 178 184 188 198 216 233 250 258 261 265 271 274 272 272 273 275 277
301 298 297 296 293 290 290 288 283 281 280 275 271 269 266 259 254 250 242 237 237 237 235 234 233 229 227 227 223 221 225 229 225 218 213 207 202 204 215 223 223 217 213 210 209 208 207 205 204 206 206 207 210 212 217 223 228 224 213 200 191 187 187 184 181 179 179 182 189 199 209 224 243 256 260 258 257 265 274 278 277 277 278 279 278